GOES 3

Last updated on Tue Jun 28 2016 01:38:04 GMT+0000 (Coordinated Universal Time)

1 10953U 78062A 16179.59593750 .00000042 00000-0 00000+0 0 9993 2 10953 13.8315 335.0301 0003461 215.1865 181.0594 0.99530296 92415
UTC large
Height (km)
Speed (km/s)
/
Latitude / Longitude
Inclination (degrees)
Orbital Period (minutes)
Azimuth
Elevation
Range (km)
Doppler Factor

Next 0 passes for location: London (51.5072 / 0.1276)

Sorry there are no passes over London.